Location: Bruderhein
(53.8035°N, 112.9265°W)
Time: 01:40:53
(UTC+00:00)

BEESAT - Pass Details

Date: 10 April 2023
Orbit: 696 x 706 km, 98.5° (Epoch: 31 May)

Event Time Altitude Azimuth Distance (km) Brightness Sun altitude
Rises 06:41:29 0° 7° (N) 3,112 ? -27.4°
Reaches altitude 10° 06:44:24 10° 348° (NNW) 2,187 ? -27.5°
Maximum altitude 06:47:31 18° 308° (NW) 1,722 ? -27.6°
Drops below altitude 10° 06:50:37 10° 267° (W) 2,174 ? -27.7°
Enters shadow 06:51:29 - 260° (W) 2,420 ? -27.7°
